Temperature
15 15 15 16 16 16 16 16 16 16 16 16 15 15 16 16 16 16 16 16 16 16 16 16 16 16 16 16 16 16 16 15 15 15 15 15 15 15 15 15 15 15 15
15 15 15 15 16 16 16 16 16 16 15 15 15 15 15 15 15 16 16 15 15 15 16 16 16 16 16 15 15 15 15 15 15 15 15 15 15 15 15 15 15 15 15
15 15 15 15 15 15 15 15 15 15 15 15 15 15 15 15 15 16 16 15 15 15 15 15 15 15 15 15 15 15 15 15 15 15 15 15 15 15 15 15 15 14 14
15 15 15 15 15 15 15 15 15 15 15 15 15 15 15 15 15 15 15 15 15 15 15 15 15 15 15 15 15 15 15 14 14 14 14 14 14 14 14 14 14 14 14
15 15 15 15 15 15 15 15 15 15 15 15 15 15 15 15 15 15 15 15 15 15 15 15 15 15 15 15 15 15 14 14 14 14 14 14 14 14 14 14 14 14 14
15 15 15 15 15 15 15 14 14 14 14 15 15 15 15 15 15 15 15 15 15 15 15 15 15 15 15 14 14 14 14 14 14 14 14 14 14 13 13 13 13 13 13
15 14 14 14 14 15 14 14 14 14 14 14 14 15 15 15 15 15 15 15 15 15 15 15 15 15 14 14 14 14 14 14 14 14 14 14 13 13 13 13 13 13 13
14 14 14 14 14 14 14 14 14 14 14 14 14 14 14 14 14 14 15 15 15 15 14 14 14 14 14 14 14 14 14 14 14 14 14 13 13 13 13 13 13 13 13
14 14 14 14 14 14 14 14 14 14 14 14 14 14 14 14 14 14 14 14 14 14 14 14 14 14 14 14 14 14 14 14 14 13 13 13 13 13 13 13 13 13 12
13 13 13 13 13 13 13 13 13 13 13 14 14 14 14 14 14 14 14 14 14 14 14 14 14 14 14 13 13 13 13 13 13 13 13 13 12 12 12 12 12 12 12
13 13 13 13 13 13 13 13 13 13 13 13 13 13 13 13 13 13 14 13 14 14 14 14 14 13 13 13 13 13 13 13 13 13 13 12 12 12 12 12 12 12 12
13 12 13 13 13 13 13 13 13 13 13 13 13 13 13 13 13 13 13 13 13 13 13 13 13 13 13 13 13 13 13 12 12 12 12 12 12 12 12 12 12 11 11
12 12 12 12 12 12 13 13 13 13 13 13 13 13 13 13 13 13 13 13 13 13 13 13 13 13 13 13 13 12 12 12 12 12 12 12 12 11 11 11 11 11 11
12 12 12 12 12 12 12 12 12 12 12 12 12 12 12 12 13 13 13 13 13 13 13 13 13 12 12 12 12 12 12 12 12 12 11 11 11 11 11 11 11 11 10
11 11 11 11 11 12 12 12 12 12 12 12 12 12 12 12 12 12 12 12 12 12 12 12 12 12 12 12 12 12 12 11 11 11 11 11 11 11 11 11 10 10 10
11 11 11 11 11 11 11 11 11 12 12 12 12 12 12 12 12 12 12 12 12 12 12 12 12 12 12 12 11 11 11 11 11 11 11 11 10 10 10 10 10 10 10
11 11 11 11 10 11 11 11 11 11 11 11 11 11 11 11 11 12 12 12 12 12 12 12 12 11 11 11 11 11 11 11 10 10 10 10 10 10 10 10 10 10 9
11 11 10 10 10 10 10 11 11 11 11 11 11 11 11 11 11 11 11 11 11 11 11 11 11 11 11 11 11 10 10 10 10 10 10 10 10 10 10 10 9 9 9
10 10 10 10 10 10 10 10 10 10 10 10 10 11 11 11 11 11 11 11 11 11 11 11 11 11 11 10 10 10 10 10 10 9 9 9 9 9 9 9 9 9 9
10 10 10 10 10 10 10 10 10 10 10 10 10 10 10 10 10 10 10 11 10 11 10 10 10 10 10 10 10 10 9 9 9 9 9 9 9 9 9 9 9 8 8
9 9 9 9 9 9 9 9 9 9 10 10 10 10 10 10 10 10 10 10 10 10 10 10 10 10 10 10 9 9 9 9 9 8 8 8 8 8 8 8 8 8 8
9 9 9 9 9 9 9 9 9 9 9 9 9 9 9 9 9 10 10 10 10 10 10 10 9 9 9 9 9 8 8 8 8 8 8 8 8 8 8 8 8 8 7
8 8 8 8 8 8 8 8 8 8 8 8 9 9 9 9 9 9 9 9 9 9 9 9 9 9 9 8 8 8 8 7 7 8 8 8 8 7 7 7 7 7 7
8 8 8 8 8 8 8 8 8 8 8 8 8 9 9 9 9 9 9 9 9 9 9 9 9 9 8 8 8 8 7 7 7 7 7 7 7 7 7 7 7 7 7
8 7 7 7 7 7 7 7 7 7 7 8 8 8 8 8 8 8 8 8 8 8 8 8 8 8 8 8 8 7 7 7 7 6 6 7 7 7 7 6 6 6 6
7 7 7 7 7 7 7 7 7 7 7 7 7 7 8 8 8 8 8 8 8 8 8 8 8 7 7 7 7 7 7 7 6 6 6 6 6 6 6 6 6 6 5
Wind_Speed
3 4 8 8 9 9 9 10 10 10 11 12 12 12 13 13 13 13 12 12 12 13 14 14 14 14 14 14 14 15 15 15 15 15 15 15 15 16 16 15 15 14 16
5 7 9 9 10 10 9 10 10 10 11 11 11 12 12 12 12 11 11 12 12 12 13 13 13 13 13 13 13 14 14 15 14 14 14 14 15 15 16 15 15 14 15
7 7 8 9 10 10 9 10 10 10 10 10 10 10 11 11 11 10 10 11 11 11 12 13 13 13 13 13 13 13 14 14 14 13 13 11 12 14 15 15 15 15 15
8 8 8 9 10 10 10 10 9 9 9 9 9 9 9 10 10 10 10 10 11 11 12 12 12 12 12 12 12 12 13 14 14 13 11 10 10 13 14 14 14 14 14
7 7 8 10 10 10 9 9 9 9 9 9 8 8 9 9 9 9 9 10 10 11 11 11 11 11 11 11 11 12 12 13 13 12 11 10 10 12 13 13 13 13 12
6 8 9 10 10 9 9 9 9 8 9 8 8 8 8 8 8 9 9 10 10 10 10 10 10 10 10 10 10 11 12 13 12 11 10 9 9 11 12 12 12 12 12
6 7 9 10 9 9 9 8 8 8 8 8 7 7 7 7 8 8 9 10 9 10 10 9 9 9 9 9 10 11 12 12 11 10 9 8 9 10 11 11 11 11 10
6 7 8 9 9 8 8 8 7 8 7 7 7 7 6 6 7 8 9 9 9 9 9 9 8 9 9 9 10 11 11 10 10 9 8 7 8 9 10 10 9 9 9
6 6 6 8 8 8 7 7 7 7 7 7 6 6 6 6 7 7 8 9 9 8 8 8 8 8 8 9 10 10 11 11 10 8 7 7 8 9 9 9 9 8 9
6 5 5 6 6 6 6 6 6 6 6 6 6 6 6 6 6 7 7 8 8 8 8 8 8 8 8 9 9 10 10 10 9 8 6 6 7 8 8 8 8 8 8
4 3 3 3 5 5 5 5 5 5 5 5 5 6 5 4 5 5 6 7 7 8 8 8 8 7 7 8 9 10 9 8 8 7 6 6 7 7 7 7 7 7 7
3 2 2 2 3 4 4 4 4 4 4 4 4 5 5 4 4 5 6 7 7 7 7 7 7 6 6 6 7 8 8 7 6 5 5 6 6 6 6 6 6 6 6
4 3 3 2 2 3 3 3 3 4 4 4 3 4 5 4 4 4 5 5 5 6 5 5 5 4 5 5 6 6 7 6 5 5 5 6 5 5 5 5 5 5 4
3 2 2 2 2 2 3 3 3 3 3 3 2 3 4 3 3 4 3 4 4 4 4 4 4 4 4 5 6 6 6 6 5 5 5 5 5 5 5 4 4 4 3
3 2 2 2 2 2 2 2 2 2 2 2 2 2 4 3 2 3 3 3 3 4 4 3 3 3 3 4 5 5 5 6 6 5 4 5 5 4 4 4 3 3 2
3 3 2 2 2 2 2 2 2 2 2 2 2 2 3 3 3 3 3 3 3 4 4 4 4 3 3 3 4 4 5 5 5 5 5 5 4 4 3 3 2 2 2
4 3 2 2 2 2 2 2 2 2 2 2 1 2 3 3 4 3 2 2 3 5 5 4 4 4 3 3 3 3 4 5 5 5 5 5 4 3 3 2 2 2 2
4 3 3 2 2 1 1 2 2 2 2 1 2 2 2 3 4 4 2 2 4 5 4 3 3 3 2 2 2 2 3 4 4 4 4 4 4 3 2 2 1 1 1
4 3 3 2 2 2 1 1 2 2 2 1 2 2 2 2 4 4 2 2 4 4 3 4 3 4 3 2 2 1 1 2 3 4 4 4 4 4 3 2 1 1 1
3 3 3 2 1 1 1 1 1 1 1 1 1 1 2 2 4 4 3 2 3 4 3 3 4 3 3 3 3 1 1 1 2 2 2 2 3 3 3 2 1 1 2
3 3 2 2 1 1 1 1 1 1 1 0 0 1 2 2 3 4 3 3 2 3 4 4 4 4 2 2 3 2 2 1 1 1 1 1 1 1 2 1 1 1 2
3 3 3 2 2 1 1 1 2 2 1 1 0 1 1 2 3 3 3 3 3 3 4 4 4 3 2 2 3 3 1 2 2 1 1 1 1 0 0 1 1 1 2
4 3 3 3 2 2 1 1 1 1 1 0 0 1 1 1 3 3 3 3 3 3 4 5 5 5 4 2 2 4 3 3 2 2 1 1 1 1 1 1 2 3 3
4 3 3 3 2 2 1 2 2 2 2 2 2 2 1 1 2 2 3 3 3 3 4 4 4 3 5 4 2 1 2 3 2 1 2 2 2 2 2 1 2 3 3
4 3 3 3 2 2 1 2 3 2 1 1 1 1 0 0 1 2 2 3 3 3 3 4 4 4 4 4 3 2 1 1 2 2 2 2 2 2 2 2 2 2 3
3 3 3 3 2 2 2 2 3 3 2 1 1 1 1 1 0 1 2 2 2 2 2 3 4 4 4 4 3 3 3 2 2 2 3 3 3 3 2 2 2 2 3
Wind_Direction
174 172 142 129 122 116 110 107 102 98 95 97 97 96 96 94 92 93 92 94 94 92 92 91 91 91 90 89 87 86 85 85 83 83 85 87 90 90 88 84 82 80 83
157 155 142 135 128 122 116 111 107 103 100 97 100 99 100 100 98 96 94 93 96 96 95 95 95 93 92 90 89 87 86 85 84 81 81 85 89 90 90 87 85 85 84
135 140 138 135 131 127 121 116 111 109 106 102 102 103 104 104 104 100 98 96 96 98 98 97 96 96 94 92 90 88 87 85 83 81 79 80 87 90 91 89 85 84 83
126 129 133 133 131 128 123 118 114 112 109 106 105 108 108 106 107 105 103 101 99 98 100 99 99 98 97 94 91 89 87 86 84 80 77 80 85 93 94 92 88 86 84
116 121 131 133 131 129 125 122 119 118 116 112 108 108 108 107 110 111 109 107 105 103 101 101 100 100 100 98 94 91 89 88 84 77 76 77 83 93 94 92 92 90 89
116 117 126 130 130 127 127 125 123 122 121 118 114 111 112 111 114 116 114 111 110 109 106 104 104 104 102 99 96 95 94 91 83 76 75 76 83 94 97 95 93 93 92
122 119 123 126 128 126 127 129 129 126 124 120 118 117 116 118 117 122 117 116 115 114 112 110 106 106 107 102 98 100 100 94 86 79 75 81 90 97 97 96 92 91 93
120 117 121 121 121 123 124 126 127 130 127 125 124 123 120 121 122 124 124 123 123 121 118 115 111 106 109 107 102 102 101 97 91 86 80 87 101 103 100 96 93 90 89
100 106 107 111 111 113 119 122 122 126 129 129 129 125 119 117 125 125 130 128 127 127 125 121 116 110 108 111 108 104 102 96 93 88 86 87 99 102 99 97 96 94 91
92 90 95 100 103 103 111 122 123 126 129 126 124 119 113 117 129 131 133 133 132 131 128 125 120 113 106 106 110 106 103 96 93 89 88 93 103 104 101 98 98 95 92
100 95 87 91 102 105 110 115 112 117 120 118 118 119 116 113 126 133 135 140 140 139 135 131 126 120 107 103 110 109 103 100 98 93 97 102 106 109 109 104 102 99 96
141 138 106 91 99 99 105 98 90 96 99 103 111 116 114 116 128 140 140 142 142 141 140 136 131 122 109 100 107 110 104 106 106 104 111 115 113 113 112 108 105 105 102
160 153 133 115 102 100 88 87 80 84 85 85 100 120 117 112 115 121 127 135 138 139 136 137 126 114 110 108 110 113 112 111 113 115 120 123 121 122 118 112 113 111 107
139 143 144 121 108 107 100 85 86 84 81 78 91 123 124 114 115 123 125 131 133 137 128 129 125 122 116 117 121 119 115 117 121 124 126 128 131 133 130 123 122 120 116
142 141 146 142 132 117 98 92 92 87 87 91 93 112 134 133 144 143 142 138 141 141 140 137 136 132 127 124 132 131 123 125 128 130 135 135 135 136 143 136 130 130 132
156 153 155 145 143 125 127 121 105 97 104 103 99 121 138 142 151 154 151 148 154 153 151 150 148 139 137 130 134 138 135 134 133 136 136 140 138 138 143 151 154 165 170
157 152 151 142 122 135 144 146 122 118 117 107 123 135 142 148 150 155 161 166 172 165 154 144 138 126 125 126 138 143 137 136 138 141 140 139 139 140 137 146 171 189 203
149 149 161 138 125 139 156 145 121 123 120 118 142 143 143 150 155 144 157 182 173 158 149 152 154 138 131 126 136 158 135 136 141 143 142 142 138 139 137 135 161 217 222
156 154 156 148 156 160 153 123 113 112 113 111 137 146 163 168 162 148 147 155 160 147 146 162 151 143 141 131 137 139 133 139 147 140 138 146 146 141 144 166 181 217 243
149 146 145 146 161 159 124 98 87 75 62 77 112 152 174 172 166 149 137 141 151 153 154 155 146 141 148 144 125 101 103 135 125 134 151 148 145 148 151 161 181 243 261
138 133 144 148 162 154 149 152 168 209 247 260 150 148 161 167 157 146 140 144 147 166 163 160 153 143 131 125 104 66 13 31 100 140 134 123 111 146 149 154 194 241 273
167 164 163 168 170 181 192 197 196 206 222 229 213 87 157 163 157 145 144 158 157 167 156 155 146 149 140 124 129 125 73 338 324 270 204 178 168 139 161 220 217 233 258
171 180 181 184 178 186 175 125 110 71 37 72 268 241 202 154 139 134 138 143 154 169 173 168 162 154 162 150 126 134 146 210 257 294 265 237 229 220 256 254 237 244 246
185 178 171 165 161 178 167 152 167 177 214 230 225 222 202 150 126 132 134 139 155 162 169 173 167 161 159 164 155 120 139 145 160 257 300 296 272 249 243 274 262 247 247
166 160 163 151 151 155 159 170 175 183 207 232 222 172 191 138 124 125 141 144 155 160 167 171 166 160 163 168 166 161 143 104 116 160 244 285 295 263 245 244 244 245 245
144 144 148 146 152 149 148 158 167 169 171 160 167 170 187 213 182 120 129 143 151 146 160 177 175 171 174 167 163 159 158 158 176 177 214 243 267 276 271 245 236 247 251
Height
1519 1521 1522 1523 1524 1525 1525 1526 1526 1527 1528 1528 1529 1529 1530 1530 1530 1530 1531 1531 1531 1531 1532 1532 1532 1532 1532 1532 1533 1533 1533 1533 1533 1533 1533 1534 1534 1534 1534 1535 1535 1535 1535
1518 1520 1522 1523 1524 1524 1525 1526 1526 1527 1528 1529 1529 1530 1530 1530 1531 1531 1531 1532 1532 1532 1532 1533 1533 1533 1533 1533 1534 1534 1534 1534 1535 1535 1535 1535 1536 1536 1536 1536 1536 1536 1537
1518 1520 1521 1522 1523 1524 1525 1526 1526 1527 1528 1529 1529 1530 1531 1531 1531 1532 1532 1532 1533 1533 1533 1533 1534 1534 1534 1534 1534 1535 1535 1535 1536 1536 1536 1537 1537 1537 1537 1537 1538 1538 1538
1518 1519 1521 1522 1523 1524 1525 1525 1526 1527 1528 1528 1529 1530 1531 1531 1531 1532 1532 1533 1533 1533 1533 1534 1534 1534 1534 1535 1535 1535 1536 1536 1537 1537 1537 1538 1538 1538 1538 1539 1539 1539 1539
1518 1519 1521 1522 1523 1524 1524 1525 1526 1527 1527 1528 1529 1530 1530 1531 1531 1532 1532 1533 1533 1533 1534 1534 1535 1535 1535 1535 1536 1536 1537 1537 1538 1538 1538 1539 1539 1539 1539 1539 1540 1540 1540
1518 1519 1520 1521 1522 1523 1524 1525 1525 1526 1527 1527 1528 1529 1530 1530 1531 1532 1532 1533 1533 1533 1534 1534 1535 1535 1536 1536 1536 1537 1537 1538 1538 1539 1539 1540 1540 1540 1540 1540 1541 1541 1541
1517 1518 1520 1521 1522 1522 1523 1524 1525 1525 1526 1526 1527 1528 1529 1530 1530 1531 1532 1532 1533 1533 1534 1534 1535 1535 1536 1536 1537 1537 1538 1538 1539 1539 1540 1540 1541 1541 1541 1541 1541 1541 1541
1517 1518 1519 1520 1521 1522 1522 1523 1524 1524 1525 1525 1526 1527 1528 1529 1530 1530 1531 1532 1532 1533 1534 1534 1535 1535 1535 1536 1537 1537 1538 1539 1539 1540 1540 1541 1541 1541 1541 1541 1541 1542 1542
1517 1517 1518 1519 1520 1520 1521 1522 1523 1523 1524 1525 1525 1526 1527 1528 1529 1529 1530 1531 1532 1532 1533 1534 1534 1535 1535 1536 1537 1537 1538 1539 1539 1540 1540 1541 1541 1541 1541 1541 1541 1542 1541
1516 1517 1517 1518 1518 1519 1520 1521 1522 1522 1523 1523 1524 1525 1526 1527 1528 1529 1529 1530 1531 1532 1532 1533 1534 1535 1535 1536 1537 1537 1538 1539 1539 1540 1540 1541 1541 1541 1541 1541 1541 1541 1541
1515 1516 1516 1516 1517 1517 1518 1519 1520 1521 1521 1522 1523 1524 1525 1526 1527 1527 1528 1529 1530 1531 1532 1532 1533 1534 1535 1536 1536 1537 1538 1538 1539 1539 1540 1540 1541 1541 1541 1541 1541 1541 1541
1513 1514 1515 1515 1515 1515 1516 1517 1518 1519 1520 1520 1521 1522 1523 1524 1525 1526 1527 1528 1529 1530 1531 1531 1532 1533 1534 1535 1536 1537 1537 1538 1538 1539 1539 1540 1540 1541 1541 1541 1541 1541 1541
1511 1512 1513 1513 1513 1514 1514 1515 1516 1517 1518 1519 1519 1520 1521 1522 1523 1524 1525 1526 1527 1528 1529 1530 1531 1532 1533 1534 1535 1536 1536 1537 1538 1538 1539 1539 1540 1540 1540 1540 1540 1540 1540
1510 1510 1511 1512 1512 1512 1513 1513 1514 1515 1516 1517 1517 1518 1519 1520 1521 1522 1523 1524 1525 1526 1527 1529 1530 1531 1532 1533 1534 1535 1536 1536 1537 1537 1538 1538 1539 1539 1539 1539 1539 1539 1539
1508 1509 1509 1510 1510 1510 1510 1511 1512 1513 1514 1514 1515 1516 1517 1518 1519 1520 1521 1522 1523 1524 1526 1527 1528 1529 1530 1531 1532 1533 1534 1535 1536 1536 1537 1537 1538 1538 1538 1539 1538 1538 1538
1506 1507 1507 1508 1508 1508 1508 1509 1509 1510 1511 1512 1513 1514 1514 1515 1516 1517 1518 1520 1521 1522 1524 1525 1526 1527 1528 1530 1531 1532 1533 1534 1534 1535 1536 1536 1537 1537 1537 1537 1537 1537 1537
1503 1504 1505 1505 1506 1506 1506 1507 1507 1508 1509 1509 1510 1511 1512 1513 1514 1515 1516 1517 1519 1520 1521 1523 1524 1526 1527 1528 1529 1530 1531 1532 1533 1534 1534 1535 1535 1535 1536 1535 1535 1535 1535
1501 1501 1502 1503 1503 1503 1504 1504 1504 1505 1506 1507 1507 1508 1509 1510 1511 1512 1513 1515 1516 1518 1519 1520 1522 1523 1524 1526 1527 1528 1529 1530 1531 1532 1532 1533 1533 1533 1534 1534 1533 1533 1533
1498 1499 1499 1500 1500 1501 1501 1501 1502 1503 1503 1504 1504 1505 1506 1508 1509 1509 1511 1512 1513 1515 1516 1518 1519 1520 1522 1523 1524 1526 1527 1528 1529 1530 1530 1531 1531 1531 1532 1532 1531 1531 1531
1495 1496 1496 1497 1498 1498 1498 1499 1499 1500 1500 1501 1502 1502 1503 1505 1506 1507 1508 1509 1510 1511 1513 1515 1516 1518 1519 1521 1522 1524 1525 1526 1527 1527 1528 1529 1529 1529 1529 1529 1529 1529 1529
1492 1493 1493 1494 1494 1495 1495 1495 1496 1496 1497 1498 1498 1499 1500 1502 1502 1504 1505 1506 1507 1508 1509 1511 1513 1515 1516 1518 1520 1521 1523 1524 1524 1525 1526 1526 1527 1527 1527 1527 1526 1526 1526
1489 1490 1490 1491 1491 1492 1493 1493 1494 1494 1494 1495 1496 1497 1498 1499 1500 1501 1502 1503 1504 1505 1506 1508 1510 1511 1513 1515 1516 1518 1520 1522 1521 1522 1523 1523 1524 1524 1524 1524 1523 1523 1523
1485 1486 1487 1487 1488 1489 1490 1491 1491 1492 1491 1492 1493 1494 1495 1496 1496 1497 1499 1500 1501 1502 1503 1504 1506 1508 1510 1512 1513 1516 1517 1517 1518 1519 1520 1521 1521 1521 1521 1520 1520 1520 1520
1482 1483 1484 1484 1485 1486 1487 1488 1488 1488 1488 1489 1490 1491 1492 1493 1494 1495 1496 1497 1498 1499 1500 1502 1503 1505 1507 1508 1510 1512 1514 1514 1515 1516 1517 1517 1518 1518 1517 1517 1517 1517 1517
1479 1480 1481 1482 1482 1483 1484 1485 1486 1486 1486 1487 1488 1488 1489 1490 1491 1492 1493 1494 1495 1496 1498 1499 1500 1502 1504 1506 1507 1509 1510 1511 1512 1512 1513 1514 1514 1514 1514 1514 1514 1514 1513
1477 1478 1479 1479 1480 1481 1482 1482 1483 1483 1484 1484 1485 1485 1486 1487 1488 1489 1490 1491 1492 1493 1495 1496 1498 1499 1501 1502 1504 1505 1506 1507 1508 1509 1510 1510 1510 1510 1511 1511 1510 1510 1510